User: anonymous   Login
Location: Plum
(40.5000°N, 79.7500°W)
Time: 18:45:38
(UTC-05:00)
Language:

Cosmos 1825 - Orbit

View from above orbital plane
View from above orbital plane
View from above satellite
View from above satellite

Ground track
Ground track

The orbit data is extracted from the following two-line orbital elements,

1 17566U 87024A   16337.94201331 +.00001152 +00000-0 +54646-4 0  9997
2 17566 082.5039 124.6607 0004249 158.4328 201.7086 15.18298474623778
Epoch (UTC): 02 December 2016 22:36:29
Eccentricity: 0.0004249
inclination: 82.5039°
perigee height: 508 km
apogee height: 514 km
right ascension of ascending node: 124.6607°
argument of perigee: 158.4328°
revolutions per day: 15.18298474
mean anomaly at epoch: 201.7086°
orbit number at epoch: 62377

The dashed part of the orbit path shows where the satellite is in the earth's shadow,  

DLR